Location: Gull Harbor
(47.1000°N, 122.9000°W)
Time: 10:23:15
(UTC-08:00)

ISS - Pass Details

Date: 26 October 2019
Orbit: 412 x 421 km, 51.6° (Epoch: 13 November)

Event Time Altitude Azimuth Distance (km) Brightness Sun altitude
Exits shadow 07:00:06 - 235° (SW) 1,982 -0.8 -8.3°
Reaches altitude 10° 07:01:16 10° 234° (SW) 1,503 -1.4 -8.1°
Maximum altitude 07:04:38 68° 151° (SSE) 456 -3.4 -7.6°
Drops below altitude 10° 07:07:59 10° 68° (ENE) 1,506 0.1 -7.0°
Sets 07:10:06 0° 66° (ENE) 2,372 1.1 -6.7°
